Location: Ferintosh
(52.7647°N, 112.9692°W)
Time: 15:57:43
(UTC+00:00)

Transit 2A Rocket - Pass Details

Date: 27 May 2024
Orbit: 583 x 910 km, 66.7° (Epoch: 22 June)

Event Time Altitude Azimuth Distance (km) Brightness Sun altitude
Rises 15:02:07 0° 305° (NW) 3,271 7.8 30.9°
Reaches altitude 10° 15:05:05 10° 322° (NW) 2,402 7.3 31.3°
Maximum altitude 15:09:14 21° 10° (N) 1,829 7.2 32.0°
Drops below altitude 10° 15:13:35 10° 58° (ENE) 2,538 8.5 32.6°
Sets 15:16:49 0° 74° (ENE) 3,511 9.3 33.1°
